GFSFLT2_con_mlcape_021.txt.gz
CAPE
0 0 0 0 0 0 0 0 0 0 0 0 0 0 0 14 50 99 153 224 194 274 354 434 513 538 638 684 725 805 915 1069
0 0 0 0 0 0 0 0 0 0 0 0 0 0 0 0 3 48 114 233 328 417 483 546 621 675 737 782 768 863 967 1144
0 0 0 0 0 0 0 0 0 0 0 0 0 0 0 0 0 0 32 123 281 548 648 646 687 791 859 885 930 1015 1004 1105
0 0 0 0 0 0 0 0 0 0 0 0 0 0 0 0 0 0 0 35 242 602 767 755 820 834 888 1001 1036 1079 1181 1216
0 0 0 0 0 0 0 0 0 0 0 0 0 0 0 0 0 0 16 33 183 528 738 836 909 976 998 1112 1175 1300 1383 1263
0 0 0 0 0 0 0 0 0 0 0 0 0 0 0 0 0 0 20 68 142 339 684 905 1054 1102 1152 1214 1348 1471 1556 1263
0 0 0 0 0 0 0 0 0 0 0 0 0 0 0 0 21 31 21 79 126 173 394 804 1052 1170 1290 1392 1521 1535 1769 1327
0 0 0 0 0 0 0 0 0 0 0 0 0 0 0 0 5 22 42 86 116 193 353 556 819 932 1266 1481 1655 1766 1607 1322
0 0 0 0 0 0 0 0 0 0 0 0 0 0 0 0 0 0 72 98 163 243 363 484 617 827 928 1235 1674 1727 1507 1232
0 0 0 0 0 0 0 0 0 0 0 0 0 0 0 0 0 0 88 189 241 230 341 452 533 659 890 1248 1534 1462 1351 1000
21 5 0 0 0 0 0 0 0 0 0 0 0 0 0 0 0 0 21 86 142 148 203 201 361 661 938 1222 1426 1469 1227 937
12 2 0 0 0 0 0 0 0 0 0 0 0 0 5 0 0 0 22 102 177 212 296 393 382 739 716 851 1027 1018 1153 977
23 0 0 0 0 15 0 0 0 0 0 0 4 3 1 0 4 25 60 138 242 381 355 394 453 393 362 516 542 876 1139 998
131 0 0 0 14 112 16 0 0 0 0 0 10 35 67 111 217 279 304 364 370 241 283 472 588 684 485 563 1155 1169 928 880
2 5 0 0 4 0 1 23 51 280 334 183 154 181 170 107 74 99 157 198 265 174 269 533 657 647 492 392 638 705 932 878
2 0 0 0 0 0 0 0 0 0 0 23 36 89 172 223 212 187 258 261 394 236 195 377 577 541 644 573 779 799 824 796
1 0 0 0 0 0 0 0 0 0 0 0 28 137 186 289 323 361 413 343 326 418 491 499 574 678 624 467 389 614 667 638
0 1 0 0 0 0 0 0 0 0 0 0 0 2 25 64 419 538 488 430 487 494 506 449 448 467 392 267 359 421 342 225
1 0 0 0 0 0 0 0 0 0 0 0 0 0 0 0 3 223 459 483 548 516 349 378 403 406 262 256 274 176 2 0

GFSFLT2_con_mlcape_024.txt.gz
CAPE
0 0 0 0 0 0 13 25 21 0 0 0 14 36 0 9 29 76 269 354 340 357 487 542 772 1133 1426 1677 2048 2144 1959 2291
0 0 0 0 0 0 0 13 16 0 2 0 1 0 0 0 13 49 104 268 379 477 547 738 891 1137 1490 1835 1853 1952 1867 2026
0 0 0 0 0 0 0 0 5 0 0 0 0 0 0 0 0 6 34 136 362 511 589 861 983 1117 1496 1768 1935 1981 1938 1952
0 0 0 0 0 0 0 0 0 1 0 0 0 0 0 0 0 0 0 54 174 527 686 797 1108 1172 1371 1602 1824 1983 2044 2277
0 0 0 0 0 0 0 0 0 0 0 0 0 0 0 0 0 0 196 159 174 459 763 934 1176 1428 1380 1608 1698 1842 2015 2146
0 0 0 0 0 0 0 0 0 0 15 0 0 0 0 0 0 0 25 359 445 534 807 1136 1311 1718 1782 1640 1690 1788 1922 2073
0 0 0 0 0 0 0 0 0 0 0 0 0 0 0 0 0 0 223 566 566 730 1015 1392 1566 1801 1951 1844 1840 1786 1951 2058
0 0 0 0 0 0 0 0 0 0 0 0 0 0 0 0 0 0 69 659 768 900 1153 1574 1791 2031 2079 2004 1947 1963 2080 2260
1 7 1 18 0 0 0 0 0 0 0 0 0 0 0 0 0 0 4 348 662 920 1083 1625 1861 2100 2129 2149 2108 2220 2349 2577
2 44 53 0 0 0 0 0 0 0 0 0 0 0 0 0 0 14 34 97 669 1006 1218 1619 1702 1933 1957 2116 2316 2468 2605 2633
42 106 49 12 1 0 0 0 0 0 0 0 0 0 0 0 5 45 70 240 574 997 1198 1534 1441 1671 1844 1992 2301 2526 2552 2503
179 106 93 215 137 128 108 0 0 0 0 0 0 0 0 21 91 1 35 392 837 816 949 1327 1394 1588 1884 2118 2363 2308 2251 2270
66 153 182 139 68 202 23 38 118 0 0 0 0 0 93 129 168 250 455 738 877 915 1081 1319 1480 1833 2037 2074 2101 2183 2179 2101
183 208 175 32 225 199 354 520 229 188 134 51 118 226 360 534 600 619 831 1020 1306 1526 1540 1312 1813 2071 2092 2067 2246 2283 2159 1927
395 397 38 35 174 209 356 407 707 421 311 320 361 467 558 654 775 816 921 1009 1218 1402 1553 1762 1938 1942 1526 1420 1764 1648 1731 1747
169 28 31 7 0 6 12 70 204 582 611 511 428 402 394 406 485 588 685 736 880 1083 1297 1413 1546 1733 1363 1532 1711 1488 1621 1459
106 9 0 0 0 0 0 0 3 140 374 556 649 737 791 853 776 823 890 1131 1324 1416 1247 1449 1669 1471 1538 1343 1485 1443 1337 1201
80 7 15 0 0 0 0 0 0 0 1 9 50 131 375 758 985 998 812 1005 956 1153 1289 1171 1404 1164 985 1377 1206 1218 1141 1041
224 24 0 0 0 0 0 0 0 0 0 0 0 0 17 163 564 883 1099 1233 1151 894 1124 1298 1056 996 1070 835 919 870 855 719

GFSFLT2_con_mlcape_030.txt.gz
CAPE
0 0 0 0 0 0 0 0 3 18 22 3 69 52 0 3 34 13 30 337 324 623 661 587 1025 1120 1245 2231 2786 3187 3404 3300
0 0 0 0 0 0 0 0 0 0 6 21 70 29 2 1 25 19 1 259 347 331 655 627 843 1221 1367 1643 2830 3342 3523 3558
0 0 0 0 0 0 0 0 0 0 2 25 13 93 64 10 18 20 0 255 405 370 419 525 589 1001 1319 1583 2496 3304 3654 3611
0 0 0 0 0 0 0 0 0 0 0 1 84 79 65 27 6 21 0 0 37 420 527 630 527 715 1119 1497 1624 2924 3506 3489
0 0 0 0 0 0 0 0 0 0 0 0 0 0 0 0 0 0 6 8 33 266 610 775 678 596 779 1157 1477 2194 3191 3366
0 0 0 0 0 0 0 0 0 0 0 0 33 1 3 0 5 18 12 23 55 26 360 799 954 896 895 1089 1517 1833 2782 3086
0 0 0 0 0 0 0 0 0 0 0 0 1 53 11 24 0 9 3 4 7 82 277 411 1389 1387 1291 1290 1403 1721 2350 2840
0 0 0 0 0 0 0 0 0 0 0 0 0 33 159 4 0 0 15 6 100 213 540 474 1619 1919 1607 1595 1566 1577 1881 2567
0 0 0 0 0 0 0 0 0 0 0 0 0 2 62 125 11 142 38 0 32 576 895 1118 1847 2229 2073 1912 2121 1652 2003 2319
0 0 0 0 0 0 0 0 0 0 0 0 0 0 0 0 35 55 74 2 5 0 894 1449 1727 2051 2823 2449 2475 2327 2439 2772
0 0 0 0 0 0 1 0 2 0 0 0 0 0 0 0 0 0 0 17 97 22 31 1091 1525 1861 2423 3071 2704 2827 2822 3519
0 1 0 0 0 2 8 1 4 2 5 4 45 11 0 0 0 0 0 0 0 15 18 162 1292 2136 2604 2803 3222 2973 3457 3466
4 3 0 3 29 91 103 272 782 487 298 165 143 217 323 164 37 0 2 0 0 5 224 588 1558 2205 2940 3106 3367 3383 3706 3916
37 28 19 124 278 109 684 974 1048 977 803 627 521 335 254 488 146 331 434 468 310 399 511 2519 2259 2617 3407 3554 3699 3692 3597 3911
25 67 356 163 1031 874 601 643 961 871 659 485 433 407 165 1006 1062 821 969 1344 1341 1013 2490 3300 3506 3503 3555 3860 3683 3641 3575 3550
27 14 401 346 169 473 639 836 964 971 801 701 635 512 830 1306 1497 1531 1853 2179 2186 2638 3138 3635 3692 3739 3971 3701 3394 3213 3186 3070
135 475 538 388 347 363 604 893 1052 1455 1610 1797 1732 1859 1907 2012 1994 1967 2283 2762 2815 3112 3273 3682 3848 3721 3632 3388 3258 3096 2989 2434
183 109 52 178 167 462 472 600 726 912 1160 1353 1640 1659 1703 1786 1993 2159 2462 2589 2775 2913 2949 3130 3032 2779 2467 2909 3060 2589 2071 1759
1 1 0 7 2 3 2 3 85 68 144 248 774 1278 1367 1412 1250 1503 1789 1936 1864 1793 1857 2060 2666 2802 3071 2753 2397 1946 1542 1457

GFSFLT2_con_mlcape_033.txt.gz
CAPE
0 0 0 0 0 0 0 0 0 0 0 0 0 62 21 28 0 4 5 112 24 22 62 477 564 1032 1440 1846 1688 1819 1860 1707
0 0 0 0 0 0 0 0 0 0 0 0 27 41 26 12 16 0 3 10 89 37 46 454 632 778 1368 2113 2027 2012 1974 2170
0 0 0 0 0 0 0 0 0 0 0 0 11 75 35 37 46 16 0 3 87 266 162 365 735 881 1035 2019 2270 2382 2262 2202
0 0 0 0 0 0 0 0 0 0 0 0 0 95 53 67 29 30 14 40 11 265 444 325 758 978 1119 1994 2246 2545 2596 2600
0 0 0 0 0 0 0 0 0 0 0 0 0 22 84 89 0 13 4 4 22 150 533 711 819 1097 1201 1752 2190 2394 2745 2878
0 0 0 0 0 0 0 0 0 0 0 0 0 5 60 109 22 2 0 0 28 253 288 659 684 1069 1213 1427 2094 2457 2788 2913
0 0 0 0 0 0 0 0 0 0 0 0 0 0 130 93 46 5 2 39 17 285 413 564 568 715 1064 1392 1470 2326 2544 2850
0 0 0 0 0 0 0 0 0 0 0 0 0 12 65 136 37 28 61 41 78 196 588 625 616 594 803 1122 1425 1435 2314 2533
0 0 0 0 0 0 0 0 0 0 0 0 0 0 0 89 53 35 10 22 28 64 199 683 764 793 800 855 1095 1383 1409 2341
0 0 0 0 0 0 0 0 0 0 0 0 0 0 8 11 44 19 18 24 3 157 243 332 1004 1183 990 969 1073 1408 1670 1901
0 0 0 0 0 0 0 0 0 0 0 0 0 0 0 0 0 0 0 1 39 329 427 563 1434 1662 1617 1308 1352 1271 1662 1989
0 0 0 0 0 0 0 0 31 9 0 0 0 0 0 58 7 0 0 0 0 0 0 821 1063 2189 2083 1834 1839 1644 1600 2021
0 0 0 0 0 0 0 14 437 235 159 95 45 105 68 24 119 47 24 0 0 0 0 109 790 1888 2346 2314 2064 2410 2388 2907
0 6 1 0 3 134 959 883 790 593 464 264 190 52 24 430 562 658 768 819 775 132 40 116 109 1497 1795 2417 2672 2757 3399 3513
15 49 207 657 705 731 663 761 628 696 438 289 188 12 827 1147 1063 961 959 1074 1348 1897 1696 1905 1553 1429 1683 2750 3470 3539 3693 3867
47 27 56 39 48 186 502 806 1436 1691 1430 1370 1389 1598 1692 1582 1639 2155 2308 2387 2519 2862 2537 3000 3587 3511 3550 3809 3739 3676 3695 3481
19 41 438 323 1 48 261 1382 1496 1637 1737 1750 1562 1794 1782 1850 2213 2705 2790 3314 3496 3490 3762 3792 3824 3866 3770 3668 3567 3396 3056 2440
1 1 0 3 0 38 974 885 1059 1325 1483 1570 1732 1796 1742 1900 2313 2529 2699 2923 3370 3705 3735 3706 3611 3478 3295 3047 2757 2520 2029 1724
1 2 0 0 0 0 1 88 128 436 710 853 1147 1202 1431 1517 1592 1805 2051 2257 2435 2672 2761 2929 2825 2581 2629 2415 1980 1847 1472 860